カタログに戻る

STARLINK-37671

運用中通信VLEO
NORAD 69206·PAYLOAD·🇺🇸 United States

打ち上げ May 25, 2026 から Cape Canaveral Space Force Station

Loading…

次のパス (今後24時間)

TLE

最新Source: CelesTrak SupGP

元期: Sep 14, 2026, 23:07 UTC

1 69206C 26114AA  26257.96368056 -.00024147  00000+0 -71345-3 0  2571
2 69206  53.1570 139.3746 0001347  82.1656 118.9739 15.34402117    19

AllMySatでSTARLINK-37671をリアルタイム追跡

Download on the App Store